WGS F3 (USA 211)

Last updated on Sun Oct 06 2024 00:02:39 GMT+0000 (Coordinated Universal Time)

1 36108U 09068A 24278.72284138 .00000098 00000+0 00000+0 0 9994 2 36108 0.1552 87.9643 0003416 169.0478 219.1657 0.99731856 40383
UTC large
Height (km)
Speed (km/s)
/
Latitude / Longitude
Inclination (degrees)
Orbital Period (minutes)
Azimuth
Elevation
Range (km)
Doppler Factor

Next 0 passes for location: London (51.5072 / 0.1276)

Sorry there are no passes over London.